Regional Weather Roundup
Issued by NWS

Home | Current Version | Previous Version | Graphics & Text | Print | Product List | Glossary On
Versions: 1 2 3 4 5 6 7 8 9 10 11 12 13 14 15 16 17 18 19 20 21 22 23 24 25 26 27 28 29 30 31 32 33 34 35 36 37 38 39 40 41 42 43 44 45 46 47 48 49 50
000
ASUS45 KBOU 211607
RWRCO

WEATHER ROUNDUP FOR COLORADO
NATIONAL WEATHER SERVICE DENVER/BOULDER CO
1000 AM MDT SUN SEP 21 2014

NOTE: "FAIR" INDICATES FEW OR NO CLOUDS BELOW 12000 FEET WITH NO
SIGNIFICANT WEATHER AND/OR OBSTRUCTIONS TO VISIBILITY.

COZ001>005-013-030-031-211700-
...NORTHWEST COLORADO...

CITY           SKY/WX    TMP DP  RH WIND       PRES   REMARKS
CRAIG          CLOUDY    55  39  54 NW3       30.36R
HAYDEN         CLOUDY    59  39  47 N5        30.37R
MEEKER         NOT AVBL
MOUNT WERNER   NOT AVBL
STEAMBOAT SPGS PTSUNNY   58  44  58 NE3       30.37S
WALDEN         SUNNY     54  41  62 CALM      30.45F
$$

COZ006>008-011-211700-
...WEST CENTRAL VALLEYS...

CITY           SKY/WX    TMP DP  RH WIND       PRES   REMARKS
GRAND JUNCTION LGT RAIN  60  57  89 E17       30.27F
MONTROSE       CLOUDY    61  57  87 W6        30.38S
EAGLE          PTSUNNY   57  45  62 CALM      30.42R
RIFLE          LGT RAIN  60  50  69 CALM      30.36R
DELTA          RAIN      65  59  81 E8        30.34S
NUCLA          CLOUDY    64  52  63 E7        30.35S
$$

COZ017>023-064>068-211700-
...SOUTHWEST COLORADO...

CITY           SKY/WX    TMP DP  RH WIND       PRES   REMARKS
DURANGO        SUNNY     65  54  67 N3        30.39S
CORTEZ         LGT RAIN  71  57  61 S17G30    30.30F
PAGOSA SPRINGS SUNNY     64  48  56 CALM      30.46S
TELLURIDE      NOT AVBL
WOLF CREEK PAS CLOUDY    46  41  81 S5        30.72S
$$

COZ009-010-012-014-032>034-037-058>063-211700-
...CENTRAL COLORADO...

CITY           SKY/WX    TMP DP  RH WIND       PRES   REMARKS
ASPEN          CLOUDY    58  44  60 CALM      30.45R
BUENA VISTA    CLOUDY    55  51  88 SE6       30.52R
COPPER MTN     CLOUDY    54  41  62 SE12G23   30.71R
BERTHOUD PASS  FAIR      45  43  93 W7        30.75S
COTTONWOOD PAS FOG       52  48  87 S7        30.62R VSB<1/4
GUNNISON       CLOUDY    52  48  87 NE7       30.53R
KREMMLING      MOSUNNY   59  41  51 SW3       30.44S
LEADVILLE      CLOUDY    49  46  90 S7        30.58S
MONARCH PASS   LGT RAIN  41  37  87 W7        30.83S VSB<1/4
SALIDA         CLOUDY    56  54  94 W3        30.58R
SUNLIGHT       LGT RAIN  48  45  87 CALM      30.66R
WILKERSON PASS NOT AVBL
$$

COZ069>075-211700-
...SAN LUIS VALLEY/SANGRE DE CRISTO MOUNTAINS...

CITY           SKY/WX    TMP DP  RH WIND       PRES   REMARKS
ALAMOSA        PTSUNNY   66  46  48 VRB6      30.46S
LA VETA PASS   FOG       48  46  93 NE5       30.63S VSB<1/4
SAGUACHE       NOT AVBL
$$

COZ035-036-038>040-211700-
...NORTHERN COLORADO FRONT RANGE...

CITY           SKY/WX    TMP DP  RH WIND       PRES   REMARKS
DENVER INTL AP PTSUNNY   62  45  53 W5        30.39F
DMNS CITY PARK   N/A     63  45  53 NW3       30.39S
AURORA         PTSUNNY   60  45  58 W5        30.41S
FRONT RANGE AP NOT AVBL
ERIE MUNI ARPT NOT AVBL
BOULDER MUN AP CLOUDY    61  43  51 N7        30.39S
CENTENNIAL     PTSUNNY   60  46  59 CALM      30.41S
BROOMFIELD     PTSUNNY   59  45  58 N6        30.41S
FORT COLLINS   SUNNY     63  43  48 NE6       30.40F
LONGMONT       PTSUNNY   66  43  43 N6        30.40S
$$

COZ041-046-047-076>085-087-088-211700-
...PIKES PEAK/PALMER DIVIDE AND SOUTHERN FOOTHILLS...

CITY           SKY/WX    TMP DP  RH WIND       PRES   REMARKS
COLO. SPRINGS  PTSUNNY   63  51  65 S13       30.46R
A. F. ACADEMY  PTSUNNY   60  51  71 S12       30.45S
ELLICOTT       NOT AVBL
FALCON         PTSUNNY   64  49  58 S12       30.49S
FORT CARSON    CLOUDY    63  52  67 S10       30.43S
LIMON          CLOUDY    63  38  39 SE15G23   30.43F
MONUMENT HILL  MOSUNNY   59  46  63 S17       30.45S
TRINIDAD       CLOUDY    65  54  67 E6        30.41S
$$

COZ042>045-048>051-090-091-211700-
...NORTHEAST COLORADO...

CITY           SKY/WX    TMP DP  RH WIND       PRES   REMARKS
GREELEY ARPT   MOSUNNY   66  43  42 SE15      30.39F
AKRON          CLOUDY    63  38  39 SE16      30.40S
BURLINGTON     PTSUNNY   64  36  35 E10       30.40S
WRAY           PTSUNNY   66  37  34 CALM      30.39S
STERLING       PTSUNNY   68  46  45 S5        30.38F
HOLYOKE        SUNNY     66  37  34 E9        30.39F
FORT MORGAN    CLOUDY    61  45  55 SE9       30.39S
$$

COZ086-089-092>099-211700-
...SOUTHEAST COLORADO...

CITY           SKY/WX    TMP DP  RH WIND       PRES   REMARKS
PUEBLO         PTSUNNY   63  53  70 E12       30.40R
LA JUNTA       CLOUDY    67  43  41 E10       30.38S
LAMAR          PTSUNNY   65  45  48 CALM      30.37R
SPRINGFIELD      N/A     67  44  43 E15       30.37R
$$


USA.gov is the U.S. government's official web portal to all federal, state and local government web resources and services.